Home   Weather   Springfield   Past weeks

Flag for USA Past Weather in Springfield, Massachusetts, USA — Yesterday and Last 2 Weeks

Now
20 °F

Clear.


Feels Like: 20 °F
Forecast: 18 / 38 °F
Wind: No wind

Location: Barnes Municipal Airport

Current Time: Feb 21, 2017 at 2:49:20 am

Latest Report: Feb 21, 2017 at 1:53 am


Visibility: 10 mi

Pressure: 30.40 "Hg

Humidity: 82%

Dew Point: 15 °F

Location of SpringfieldLocation

Past Weather in Springfield — Graph

°F

Springfield Temperature Yesterday

Maximum temperature yesterday: 45 °F (at 2:53 pm)
Minimum temperature yesterday: 25 °F (at 10:53 pm)
Average temperature yesterday: 35 °F

High & Low Weather Summary for the Past Weeks

 TemperatureHumidityPressure
High57 °F (Feb 19, 1:53 pm)100% (Feb 7, 1:53 pm)30.38 "Hg (Feb 7, 1:53 pm)
Low3 °F (Feb 10, 6:53 am)30% (Feb 20, 4:53 pm)29.30 "Hg (Feb 15, 5:53 pm)
Average29 °F74%29.82 "Hg
* Reported Feb 6 12:53 am — Feb 21 12:53 am, Springfield, Weather by CustomWeather, © 2017

Note: Actual official high and low records may vary slightly from our data, if they occured in-between our weather recording intervals... More about our weather records

Advertising

Springfield Weather History for the Previous 24 Hours

Scroll right to see more
 ConditionsComfort  
Time TempWeatherWind HumidityBarometerVisibility
12:53 am
Tue, Feb 21
21 °FClear.No wind74%30.38 "Hg10 mi
11:53 pm
Mon, Feb 20
26 °FClear.No wind57%30.38 "Hg10 mi
10:53 pm25 °FClear.3 mph66%30.37 "Hg10 mi
9:53 pm27 °FClear.No wind55%30.37 "Hg10 mi
8:53 pm28 °FClear.5 mph56%30.36 "Hg10 mi
7:53 pm32 °FClear.No wind41%30.36 "Hg10 mi
6:53 pm35 °FClear.7 mph42%30.33 "Hg10 mi
5:53 pm38 °FClear.7 mph37%30.30 "Hg10 mi
4:53 pm42 °FSunny.15 mph30%30.26 "Hg10 mi
3:53 pm43 °FSunny.18 mph34%30.20 "Hg10 mi
3:09 pm44 °FSunny.13 mph35%30.18 "Hg10 mi
2:53 pm45 °FSunny.14 mph33%30.19 "Hg10 mi
1:53 pm44 °FSunny.9 mph31%30.18 "Hg10 mi
12:53 pm44 °FSunny.6 mph40%30.17 "Hg10 mi
11:53 am43 °FSunny.8 mph42%30.18 "Hg10 mi
10:53 am42 °FSunny.5 mph45%30.17 "Hg10 mi
9:53 am40 °FSunny.6 mph53%30.16 "Hg10 mi
8:53 am38 °FSunny.10 mph63%30.15 "Hg10 mi
7:53 am33 °FSunny.5 mph78%30.14 "Hg10 mi
6:53 am26 °FSunny.6 mph96%30.11 "Hg10 mi
5:53 am27 °FClear.No wind96%30.07 "Hg10 mi
4:53 am28 °FClear.3 mph96%30.03 "Hg10 mi
3:53 am29 °FClear.3 mph96%30.01 "Hg10 mi
2:53 am33 °FClear.No wind85%29.98 "Hg10 mi
Weather by CustomWeather, © 2017

See weather overviewHow to use our weather pages